NOAA 19

Last updated on Thu Jul 03 2025 00:02:22 GMT+0000 (Coordinated Universal Time)

1 33591U 09005A 25183.56504551 .00000144 00000+0 10091-3 0 9997 2 33591 98.9964 248.3977 0012751 300.9888 59.0030 14.13384226845097
UTC large
Height (km)
Speed (km/s)
/
Latitude / Longitude
Inclination (degrees)
Orbital Period (minutes)
Azimuth
Elevation
Range (km)
Doppler Factor

Next 0 passes for location: London (51.5072 / 0.1276)

Sorry there are no passes over London.